Location: Augsburg
(48.3836°N, 10.8929°E)
Time: 17:12:30
(UTC+02:00)

ISS - Pass Details

Date: 24 May 2021
Orbit: 417 x 422 km, 51.6° (Epoch: 12 June)

Event Time Altitude Azimuth Distance (km) Brightness Sun altitude
Rises 22:59:01 0° 290° (WNW) 2,368 1.0 -14.5°
Reaches altitude 10° 23:01:07 10° 293° (WNW) 1,503 -0.1 -14.6°
Maximum altitude 23:04:29 70° 17° (NNE) 451 -3.5 -14.9°
Enters shadow 23:06:34 21° 98° (E) 994 -2.2 -15.1°
